Paso Robles, CA

10:03 AM PST on February 24, 2017 (GMT -0800)
Paso Robles Municipal

Weather History for KPRB - September, 2015

Change the Weather History Date:

Sunday, September 27, 2015

  Actual Average Record
Temperature  
Mean Temperature 76 °F 67 °F  
Max Temperature 95 °F 85 °F 108 °F (2010)
Min Temperature 56 °F 49 °F 38 °F (2013)
Degree Days  
Heating Degree Days 0 2  
Month to date heating degree days 4 17  
Since 1 July heating degree days 4 25  
Cooling Degree Days 11 4  
Month to date cooling degree days 230 149  
Year to date cooling degree days 1169 882  
Growing Degree Days 24 (Base 50)    
Moisture  
Dew Point 46 °F    
Average Humidity 43    
Maximum Humidity 66    
Minimum Humidity 19    
Precipitation  
Precipitation 0.00 in 0.01 in 0.54 in (1986)
Month to date precipitation 0.05 0.18  
Year to date precipitation 5.31 9.08  
Sea Level Pressure  
Sea Level Pressure 29.81 in    
Wind  
Wind Speed 4 mph (SW)    
Max Wind Speed 15 mph    
Max Gust Speed 19 mph    
Visibility 10 miles    
Events      
T = Trace of Precipitation, MM = Missing Value Source: NWS Daily Summary

Daily Weather History Graph

Daily Weather History Graph

Search for Another Location

Airport or City:

Trip Planner

Search our weather history database for the weather conditions in past years. The results will help you decide how hot, cold, wet, or windy it might be!

Date:

Astronomy

Sep. 27, 2015 Rise Set
Actual Time 6:54 AM PDT 6:52 PM PDT
Civil Twilight 6:28 AM PDT 7:17 PM PDT
Nautical Twilight 5:59 AM PDT 7:47 PM PDT
Astronomical Twilight 5:29 AM PDT 8:17 PM PDT
Moon 6:48 PM PDT (9/27) 6:18 AM PDT (9/27)
Length of Visible Light 12h 48m
Length of Day
11h 58m
Full, 100% of the Moon is Illuminated
Sep 27
Full
Sep 27
Full
Oct 4
Last Quarter
Oct 12
New
Oct 20
First Quarter

Hourly Weather History & Observations

Time (PDT) Temp. Dew Point Humidity Pressure Visibility Wind Dir Wind Speed Gust Speed Precip Events Conditions
12:53 AM 66.9 °F 48.9 °F 52% 29.81 in 10.0 mi Calm Calm - N/A   Clear
1:53 AM 64.0 °F 48.0 °F 56% 29.81 in 10.0 mi Calm Calm - N/A   Clear
2:53 AM 60.1 °F 45.0 °F 57% 29.81 in 10.0 mi Calm Calm - N/A   Clear
3:53 AM 60.1 °F 46.9 °F 62% 29.81 in 10.0 mi Calm Calm - N/A   Clear
4:53 AM 57.9 °F 45.0 °F 62% 29.80 in 10.0 mi Calm Calm - N/A   Clear
5:53 AM 55.9 °F 44.1 °F 64% 29.81 in 10.0 mi SE 3.5 mph - N/A   Clear
6:53 AM 57.0 °F 45.0 °F 64% 29.82 in 10.0 mi Calm Calm - N/A   Clear
7:53 AM 60.1 °F 46.0 °F 60% 29.84 in 10.0 mi Calm Calm - N/A   Clear
8:53 AM 66.0 °F 46.9 °F 50% 29.85 in 10.0 mi Calm Calm - N/A   Clear
9:53 AM 71.1 °F 48.0 °F 44% 29.85 in 10.0 mi Calm Calm - N/A   Clear
10:53 AM 77.0 °F 48.9 °F 37% 29.85 in 10.0 mi Calm Calm - N/A   Clear
11:53 AM 84.0 °F 48.0 °F 28% 29.83 in 10.0 mi Calm Calm - N/A   Clear
12:53 PM 90.0 °F 46.9 °F 23% 29.81 in 10.0 mi Calm Calm - N/A   Clear
1:53 PM 93.0 °F 46.9 °F 20% 29.78 in 10.0 mi Variable 3.5 mph - N/A   Clear
2:53 PM 93.0 °F 45.0 °F 19% 29.76 in 10.0 mi SSW 12.7 mph - N/A   Clear
3:53 PM 91.0 °F 46.9 °F 22% 29.76 in 10.0 mi SW 13.8 mph - N/A   Clear
4:53 PM 88.0 °F 45.0 °F 22% 29.76 in 10.0 mi SSW 9.2 mph - N/A   Clear
5:53 PM 86.0 °F 42.1 °F 21% 29.77 in 10.0 mi SSW 9.2 mph - N/A   Clear
6:53 PM 81.0 °F 44.1 °F 27% 29.77 in 10.0 mi South 10.4 mph - N/A   Clear
7:53 PM 78.1 °F 42.1 °F 28% 29.78 in 10.0 mi South 9.2 mph - N/A   Clear
8:53 PM 75.9 °F 48.9 °F 38% 29.81 in 10.0 mi WSW 5.8 mph - N/A   Clear
9:53 PM 73.0 °F 46.0 °F 38% 29.82 in 10.0 mi West 5.8 mph - N/A   Clear
10:53 PM 71.1 °F 48.0 °F 44% 29.83 in 10.0 mi North - - N/A   Clear
11:53 PM 68.0 °F 51.1 °F 55% 29.83 in 10.0 mi WNW 4.6 mph - N/A   Clear